sat.trackr.live / text

‹ back to catalog

PODSAT

NORAD 43229 · 2018-023B

PAYLOAD ACTIVE UNKNOWN

§ Identity

Operator
Country
US
Launch date
2018-03-06
Launch site
AFETR
Launch vehicle
Mass (kg)
RCS (m²)

External: N2YO · Heavens-Above · Gunter

§ Orbital elements

Epoch: 2026-09-19T01:01:48.498816Z

Period
165.61 min
Inclination
26.8170°
Eccentricity
0.3418599
Mean motion
8.69493675 rev/d
Perigee alt
196.6 km
Apogee alt
7,026.8 km
Semi-major
9,989.8 km
B*
5.2697e-4
RAAN
256.1950°
Arg perigee
134.2883°
Mean anomaly
259.4544°
Rev number
20,089

§ Raw data

PODSAT1 43229U 18023B   26262.04292244  .00064519 -40361-6  52697-3 0  99972 43229  26.8170 256.1950 3418599 134.2883 259.4544  8.69493675200891

JSON: /api/v1/satellites/43229 · /tle

For live sub-satellite position, see the globe view (requires WebGL).

§ Visibility from observer

Set your observer location to see the next 7 days of passes ≥ 10°. The values pass through the URL so the page stays shareable.

No JS? Fill the form by hand. The geolocation button needs JavaScript.